Printer-friendly version
Follow the MPC on Twitter Follow the MPC on Facebook The MPC blog
Minor Planet Center

MPEC 2008-U87 : 2008 UA92

The following Minor Planet Electronic Circular may be linked-to from your own Web pages, but must not otherwise be redistributed electronically.

A form allowing access to any MPEC is at the bottom of this page.


Read MPEC 2008-U86 Read MPEC 2008-U88


M.P.E.C. 2008-U87                                Issued 2008 Oct. 29, 14:42 UT

     The Minor Planet Electronic Circulars contain information on unusual
         minor planets and routine data on comets.  They are published
   on behalf of Commission 20 of the International Astronomical Union by the
          Minor Planet Center, Smithsonian Astrophysical Observatory,
                          Cambridge, MA 02138, U.S.A.

             Prepared using the Tamkin Foundation Computer Network

                              MPC@CFA.HARVARD.EDU
          URL http://www.cfa.harvard.edu/iau/mpc.html  ISSN 1523-6714

                                   2008 UA92

Observations:
     K08U92A  C2008 10 28.40865 02 53 46.06 +10 06 48.3          20.9 V EU087G96
     K08U92A  C2008 10 28.41355 02 53 52.36 +10 07 56.8          20.3 V EU087G96
     K08U92A  C2008 10 28.41853 02 53 58.66 +10 09 04.6          20.8 V EU087G96
     K08U92A  C2008 10 28.42346 02 54 04.93 +10 10 11.7          20.4 V EU087G96
     K08U92A  C2008 10 28.45338 02 54 43.09 +10 17 01.2          20.9 V EU087G96
     K08U92A  C2008 10 28.45380 02 54 43.59 +10 17 05.9          21.2 V EU087G96
     K08U92A  C2008 10 28.45421 02 54 44.10 +10 17 11.7          21.6 V EU087G96
     K08U92A  C2008 10 28.45463 02 54 44.60 +10 17 18.2          20.8 V EU087G96
     K08U92A* C2008 10 28.45554 02 54 45.90 +10 17 29.9          21.3 V EU087G96
     K08U92A  C2008 10 28.45596 02 54 46.36 +10 17 36.1          20.9 V EU087G96
     K08U92A  C2008 10 28.45641 02 54 46.98 +10 17 42.2          21.3 V EU087G96
     K08U92A  C2008 10 28.45683 02 54 47.55 +10 17 47.9          20.6 V EU087G96
     K08U92A  C2008 10 29.45604 03 16 31.30 +13 55 00.9          20.6 V EU087G96
     K08U92A  C2008 10 29.46241 03 16 38.85 +13 56 17.3                 EU087G96
     K08U92A  C2008 10 29.46874 03 16 46.61 +13 57 33.3          21.2 V EU087G96

Observer details:
G96 Mt. Lemmon Survey.  Observers A. Boattini, E. Beshore.  Measurers
    E. C. Beshore, A. Boattini, G. J. Garradd, A. R. Gibbs, A. D. Grauer,
    R. E. Hill, R. A. Kowalski, S. M. Larson, R. H. McNaught.  1.5-m reflector
    + CCD.

Orbital elements:
2008 UA92                                                Earth MOID = 0.0319 AU
Epoch 2008 Nov. 30.0 TT = JDT 2454800.5                 MPC
M   9.35978              (2000.0)            P               Q
n   0.25591796     Peri.  351.23817     +0.85913166     -0.51070913
a   2.4569833      Node    39.52827     +0.47258344     +0.76723640
e   0.5824805      Incl.    2.94460     +0.19636109     +0.38797487
P   3.85           H   27.5           G   0.15           U   9
Residuals in seconds of arc
081028 G96  0.6-  0.7-    081028 G96  0.4-  0.5-    081028 G96  0.3+  0.2+
081028 G96  0.6+  0.5+    081028 G96  0.6-  0.3-    081028 G96  0.8+  0.2+
081028 G96  0.3+  0.0     081028 G96  1.2-  0.5+    081029 G96  0.1-  0.2+
081028 G96  0.3+  0.4-    081028 G96  0.8+  0.2-    081029 G96  1.2-  0.1-
081028 G96  0.2+  0.5+    081028 G96  0.4-  0.3+    081029 G96  1.3+  0.2-

Ephemeris:
2008 UA92                a,e,i = 2.46, 0.58, 3                   q = 1.0258
Date    TT    R. A. (2000) Decl.     Delta      r     Elong.  Phase     V
2008 10 21    00 07.63   -18 17.5    0.0390   1.027   142.6    36.1    22.0
2008 10 22    00 26.94   -15 25.4    0.0368   1.026   146.9    32.0    21.7
2008 10 23    00 47.85   -12 05.7    0.0351   1.026   151.7    27.3    21.5
2008 10 24    01 10.15   -08 20.0    0.0337   1.026   157.0    22.2    21.3
2008 10 25    01 33.48   -04 13.4    0.0329   1.026   162.5    16.9    21.0
2008 10 26    01 57.37   +00 05.0    0.0326   1.026   167.6    12.0    20.8
2008 10 27    02 21.26   +04 24.0    0.0329   1.026   170.8     8.9    20.7
2008 10 28    02 44.60   +08 32.2    0.0337   1.027   170.4     9.3    20.8
2008 10 29    03 06.93   +12 20.5    0.0351   1.028   167.1    12.5    21.0
2008 10 30    03 27.87   +15 43.3    0.0369   1.028   163.0    16.4    21.3
2008 10 31    03 47.19   +18 38.9    0.0390   1.029   159.0    20.2    21.5

Timothy B. Spahr             (C) Copyright 2008 MPC           M.P.E.C. 2008-U87

Read MPEC 2008-U86 Read MPEC 2008-U88


MPEC number:

Enter an MPEC number in one of the following forms:

  • 1997-B01 (the full form)
  • J97B01 (the packed version of the full form)
  • B01 (the abbreviated form)

Valid HTML 4.01!